Location: Archemont
(49.1579°N, 1.7598°E)
Time: 16:09:49
(UTC+00:00)

Cosmos 540 Rocket - Pass Details

Date: 03 February 2023
Orbit: 740 x 751 km, 74.1° (Epoch: 30 March)

Event Time Altitude Azimuth Distance (km) Brightness Sun altitude
Rises 18:30:54 0° 335° (NNW) 3,208 7.0 -16.3°
Reaches altitude 10° 18:33:16 10° 334° (NNW) 2,278 6.2 -16.6°
Maximum altitude 18:38:25 78° 250° (WSW) 769 3.6 -17.5°
Drops below altitude 10° 18:43:32 10° 164° (SSE) 2,254 5.8 -18.3°
Sets 18:45:52 0° 163° (SSE) 3,171 6.6 -18.7°
